Regional Weather Roundup
Issued by NWS

Home | Current Version | Previous Version | Text Only | Print | Product List | Glossary Off
Versions: 1 2 3 4 5 6 7 8 9 10 11 12 13 14 15 16 17 18 19 20 21 22 23 24 25 26 27 28 29 30 31 32 33 34 35 36 37 38 39 40 41 42 43 44 45 46 47 48 49 50

000
ASUS43 KLMK 031310
RWRKY
KENTUCKY REGIONAL WEATHER ROUNDUP
NATIONAL WEATHER SERVICE LOUISVILLE KY
900 AM EDT FRI JUL 03 2015

NOTE "FAIR" INDICATES FEW OR NO CLOUDS BELOW 12,000 FEET
WITH NO SIGNIFICANT WEATHER AND/OR OBSTRUCTIONS TO VISIBILITY.

KYZ001>023-026-027-061>063-070>075-031400-
WESTERN AND SOUTH CENTRAL KENTUCKY

CITY           SKY/WX    TMP DP  RH WIND       PRES   REMARKS
PADUCAH        PTSUNNY   74  69  85 NW6       29.87R HAZE
HENDERSON      CLOUDY    72  68  88 N3        29.84S
OWENSBORO      FOG       72  72 100 CALM      29.86R VSB 1/2
HOPKINSVILLE   CLOUDY    72  70  93 W10       29.86S
BOWLING GREEN  TSTM      71  68  90 SW6       29.87R FOG
GLASGOW        CLOUDY    71  71 100 SW3       29.86F THUNDER
$$

KYZ024-025-028>034-038-045-046-053-031400-
NORTH CENTRAL KENTUCKY

CITY           SKY/WX    TMP DP  RH WIND       PRES   REMARKS
LOUISVILLE/SDF CLOUDY    73  69  87 E5        29.84F
LOUISVILLE/LOU CLOUDY    72  69  90 E5        29.85F
FORT KNOX      FOG       72  70  94 E2        29.84S VSB 3/4
$$

KYZ035>037-039>044-047>052-055>060-089>105-031400-
NORTHEAST KENTUCKY

CITY           SKY/WX    TMP DP  RH WIND       PRES   REMARKS
LEXINGTON      CLOUDY    70  67  90 E3        29.88S
COVINGTON      CLOUDY    68  64  87 NE10      29.89F
FRANKFORT      CLOUDY    71  67  87 E6        29.86S
$$

KYZ054-064>069-076>088-106>120-031400-
SOUTHEAST KENTUCKY

CITY           SKY/WX    TMP DP  RH WIND       PRES   REMARKS
JACKSON        CLOUDY    69  67  93 CALM      29.90S
LONDON         CLOUDY    71  66  84 CALM      29.89S THUNDER
SOMERSET       CLOUDY    68  68 100 S3        29.89S FOG
MIDDLESBORO    CLOUDY    71  69  92 S5        29.92S
MONTICELLO     CLOUDY    72  72 100 CALM      29.90S
$$




USA.gov is the U.S. government's official web portal to all federal, state and local government web resources and services.